Wind_Speed
2 2 3 3 2 2 2 2 2 1 2 2 3 3 3 3 3 4 4 4 4 4 4 4 4 5 5 5 5 5 5 6 6 6 6 6 6 6 6 7 6 6 6 6 6 6 6 7 7
2 3 3 3 2 1 1 2 2 2 3 3 4 4 4 4 4 4 4 5 5 4 4 5 5 5 5 5 6 6 6 6 6 6 6 6 7 7 6 7 7 7 6 7 6 7 7 8 8
2 2 2 2 2 2 2 2 2 3 3 4 4 4 4 5 5 5 5 6 6 6 5 5 5 5 5 5 6 6 6 6 6 6 6 6 7 7 7 8 8 7 7 7 6 7 7 8 9
2 3 2 2 2 3 3 3 3 4 3 4 4 4 5 5 5 6 6 6 6 6 6 6 6 6 5 6 6 7 6 7 7 6 7 7 8 8 8 8 9 8 7 7 7 7 8 9 9
3 3 3 2 3 3 4 4 4 4 4 5 5 5 5 6 6 6 6 6 6 6 6 7 7 7 6 6 6 6 6 7 7 7 8 8 8 8 8 8 9 8 8 8 8 8 9 9 9
3 3 3 3 3 4 4 5 5 5 5 6 5 5 6 6 7 7 7 7 7 7 7 7 7 7 7 6 6 7 7 7 7 8 9 9 9 9 9 9 9 9 9 9 9 9 9 9 9
2 2 2 3 4 4 4 5 5 5 5 6 6 6 6 7 8 8 8 8 7 7 7 7 7 7 7 7 7 7 7 8 8 9 9 9 9 9 9 9 9 9 9 9 9 9 9 9 10
2 2 2 2 3 3 4 4 5 5 6 6 6 7 7 7 8 8 8 8 7 7 7 7 6 6 7 7 6 7 7 8 9 9 9 9 9 9 8 8 8 8 9 9 9 9 9 10 10
3 3 2 3 3 3 4 5 5 6 6 7 7 8 8 8 8 8 8 8 7 7 7 7 6 7 6 6 6 7 8 8 9 9 9 9 10 10 9 9 9 9 9 8 8 8 9 9 9
3 3 3 3 4 4 5 5 6 7 7 7 8 8 8 8 8 8 8 8 8 7 7 7 7 7 6 6 6 7 8 8 9 9 10 10 9 9 10 10 10 10 10 10 9 9 9 10 10
3 4 4 4 5 6 6 6 7 7 8 8 8 8 8 8 8 8 8 8 8 8 8 8 7 7 7 7 7 8 8 9 9 9 10 10 10 10 10 10 10 10 11 10 10 10 10 10 10
4 4 5 5 6 6 7 7 8 8 9 9 9 9 9 9 9 8 8 8 8 8 8 8 7 8 7 8 8 8 9 9 9 9 10 10 10 10 10 10 10 11 11 11 11 11 10 11 10
6 6 6 6 7 7 8 8 9 9 9 9 10 10 10 10 10 9 9 8 8 8 8 8 8 8 8 8 9 9 9 10 10 10 10 11 11 11 11 11 11 11 11 11 11 11 11 11 10
7 7 7 8 8 8 8 9 10 10 10 10 10 10 10 10 10 10 9 9 9 9 9 10 10 9 9 10 10 10 10 11 11 11 11 11 11 11 11 11 11 11 10 10 11 11 11 11 11
8 8 8 9 9 9 10 10 10 10 10 11 11 11 11 10 11 11 10 10 11 11 11 11 11 11 11 11 11 11 11 11 12 11 11 11 11 11 11 11 11 11 11 10 11 11 11 11 11
8 8 8 9 9 10 11 10 10 10 10 11 11 11 11 10 11 11 11 11 11 12 12 12 12 12 12 12 12 12 12 12 12 12 12 12 11 11 12 11 11 11 11 11 11 12 12 11 11
7 8 9 9 10 10 10 10 10 10 11 11 11 11 11 12 12 12 12 12 12 12 12 12 12 13 13 13 13 13 13 13 13 13 13 13 13 13 12 12 12 12 12 12 12 12 12 12 12
7 8 9 10 10 10 10 10 11 11 11 12 12 12 12 12 12 12 13 13 13 13 13 13 13 13 13 14 14 14 14 14 14 15 14 14 14 14 14 14 13 13 13 13 13 13 13 13 14
8 9 10 10 10 11 11 11 11 11 11 12 12 13 13 13 13 13 13 13 14 14 14 14 14 14 15 15 15 15 15 15 15 15 15 15 15 15 15 14 14 14 14 14 14 14 14 14 14
9 10 10 10 10 10 11 11 11 12 12 12 13 14 14 14 14 14 15 15 15 15 16 16 16 16 16 16 16 16 16 16 16 16 17 16 16 15 15 15 15 15 15 14 15 15 15 15 15
10 10 10 10 10 11 11 11 11 12 12 13 13 14 15 15 15 15 16 16 16 17 17 17 17 17 17 17 18 18 17 17 17 17 18 17 17 16 16 16 16 16 16 15 16 16 16 16 16
11 11 11 11 11 11 11 11 11 13 13 13 14 15 15 16 17 17 17 17 17 18 18 18 18 18 18 19 19 18 18 18 18 17 17 18 18 17 17 17 17 16 17 16 17 17 17 16 17
11 11 11 11 11 11 11 12 11 13 15 14 15 15 16 17 17 17 17 18 18 18 18 18 19 19 20 20 20 20 20 20 19 19 19 19 19 19 19 19 18 18 18 18 18 18 18 18 18
11 11 11 11 11 11 11 12 13 13 15 16 16 17 17 17 18 18 19 20 20 20 20 19 20 20 21 21 21 20 20 21 21 20 20 20 20 20 21 20 20 20 20 20 20 20 19 19 19
11 11 10 10 11 12 12 14 14 15 16 17 18 18 18 19 19 20 20 21 21 22 21 21 21 22 22 21 21 22 22 22 22 22 21 21 21 21 21 21 21 21 21 21 21 21 21 21 21
11 11 11 11 12 13 14 16 17 16 17 18 19 19 19 19 19 20 20 21 22 23 22 22 23 23 23 23 23 23 23 23 23 24 24 23 23 23 22 22 22 22 22 23 23 23 23 23 23
12 12 13 14 14 15 15 17 18 17 18 20 19 20 20 20 20 20 21 22 22 23 23 24 24 23 24 24 24 24 24 25 25 25 25 25 24 24 23 23 23 23 23 24 25 24 24 24 24
14 13 14 15 15 15 14 16 18 18 20 20 20 21 21 21 21 22 22 22 23 23 23 23 24 25 25 25 26 26 27 27 27 27 27 26 26 26 25 25 25 25 25 25 25 25 26 26 26
15 15 16 16 16 16 16 17 18 20 21 22 22 22 22 22 22 23 23 23 23 23 24 24 25 25 26 26 26 27 28 28 28 28 27 27 28 27 27 26 26 27 26 26 26 27 27 27 27
17 17 17 17 17 17 18 19 19 21 23 24 24 24 24 24 24 24 24 24 24 25 25 26 26 26 27 27 27 27 28 28 29 29 28 28 29 29 29 28 27 27 28 28 28 28 28 28 28
Wind_Direction
193 197 189 189 192 179 206 218 237 236 235 235 242 251 262 272 276 269 272 277 283 280 274 283 295 299 302 300 300 306 311 314 318 318 318 317 316 315 308 308 310 308 308 308 303 300 299 300 300
204 199 198 198 191 189 222 250 251 256 257 254 258 261 269 277 278 277 276 283 287 283 274 283 291 298 300 301 297 302 307 312 316 318 318 317 315 310 305 305 304 301 301 302 296 294 299 300 299
198 196 199 196 213 219 242 256 262 260 258 259 261 264 272 278 276 277 281 282 285 285 283 289 292 296 295 296 298 299 304 310 315 319 322 320 317 312 307 304 305 301 301 301 297 295 296 298 299
195 194 186 195 213 230 248 256 264 268 261 266 268 267 270 276 277 275 278 285 283 283 285 292 293 294 295 298 298 296 296 298 307 313 317 321 319 314 310 307 305 300 301 302 300 300 299 299 297
198 197 188 198 228 243 252 261 265 266 266 271 272 272 273 276 278 277 278 280 281 283 286 289 291 295 296 298 299 296 299 299 301 308 312 317 319 319 314 310 305 301 299 300 300 299 299 300 301
193 192 191 209 239 258 261 264 268 267 269 272 276 277 279 280 280 282 281 280 284 283 285 287 293 295 296 297 298 300 298 301 303 306 310 314 315 317 315 309 305 305 305 302 301 297 300 301 300
211 214 209 223 248 264 270 268 269 271 276 277 282 283 281 281 282 282 281 281 282 284 287 289 292 292 292 295 299 303 304 303 302 305 310 312 312 312 311 306 305 308 308 304 302 300 299 300 299
244 234 230 250 260 272 276 271 274 277 280 280 283 285 285 284 283 283 282 279 280 283 288 294 294 293 292 296 299 304 305 308 309 308 312 313 314 314 315 313 312 311 309 304 303 303 302 302 299
239 248 256 270 276 284 284 276 272 274 277 278 279 282 283 282 281 281 281 281 283 285 287 288 291 298 296 297 297 301 306 310 313 314 315 315 313 311 317 319 319 317 316 308 306 309 309 306 304
231 250 262 269 276 283 282 280 278 279 279 279 279 283 285 284 280 277 278 281 282 282 282 284 292 296 295 293 293 300 306 309 312 315 316 316 315 317 319 318 321 320 318 312 308 311 310 308 305
242 253 263 275 278 282 281 279 281 281 279 278 282 283 283 286 282 278 277 279 282 283 282 280 286 289 290 293 299 300 302 306 311 313 315 316 318 318 317 316 315 316 315 313 310 310 308 303 302
248 265 270 273 278 281 282 282 283 282 283 282 281 281 280 284 285 279 277 280 281 283 284 285 286 288 290 293 297 297 298 304 308 310 312 314 316 315 315 316 314 312 310 309 309 307 306 302 300
253 262 267 271 276 280 280 282 283 282 283 282 283 284 283 285 284 282 277 279 278 279 282 285 285 287 290 291 292 291 295 300 304 306 308 310 311 310 311 313 313 313 311 308 305 306 308 306 303
262 265 268 271 277 281 283 284 284 282 281 281 282 283 283 285 285 282 279 277 277 277 277 280 283 286 289 288 288 288 294 297 302 303 305 308 309 311 311 311 311 310 310 306 304 302 306 306 305
265 267 271 276 280 283 285 286 286 286 283 283 283 283 283 282 285 283 280 278 277 277 278 280 284 287 288 288 289 293 294 295 298 300 302 305 309 309 314 313 311 310 311 308 306 304 306 306 303
268 271 276 280 282 285 286 288 289 289 286 283 282 281 283 283 284 285 284 281 279 278 279 283 286 286 287 288 287 289 293 295 295 298 300 304 306 306 310 310 312 312 310 308 308 308 308 306 303
273 278 280 282 284 286 287 289 289 289 286 283 282 281 281 282 283 283 283 282 281 280 280 283 285 285 285 286 287 287 289 292 293 294 298 301 302 302 305 307 307 307 308 308 305 306 305 305 304
274 281 284 284 286 286 286 286 288 290 288 285 284 284 282 284 285 284 283 281 280 280 280 282 283 284 284 284 285 285 287 289 290 291 294 297 299 300 302 302 303 306 308 306 306 304 303 303 304
275 277 278 283 286 287 287 288 289 290 289 289 287 287 286 286 288 284 283 283 282 281 281 282 283 282 282 284 285 285 286 287 289 290 292 294 296 297 298 299 300 302 305 304 302 302 300 301 301
269 273 276 281 285 289 289 289 289 289 291 291 289 288 287 287 287 285 284 282 282 282 282 283 285 285 284 285 286 285 285 286 287 288 289 291 292 295 296 297 296 298 300 300 299 300 300 299 298
267 273 277 281 284 287 289 291 293 292 291 293 292 289 287 287 286 284 283 284 283 284 284 285 286 287 286 285 286 284 283 284 285 285 286 288 290 292 292 292 293 294 296 295 295 297 298 300 300
268 271 275 277 283 288 292 296 297 297 295 295 295 290 288 287 285 283 284 284 284 285 284 285 285 285 285 285 285 285 285 285 285 285 285 286 288 288 290 290 290 289 290 291 293 294 295 298 299
274 272 274 278 282 286 287 292 298 299 300 301 299 294 290 289 287 286 284 283 283 284 284 284 284 284 283 283 284 285 286 286 287 287 287 286 287 288 287 290 288 288 288 288 290 291 293 294 295
277 274 274 278 283 285 289 290 295 296 297 299 299 297 293 290 287 286 284 283 282 282 282 283 283 283 284 284 283 284 284 285 285 286 286 286 288 289 286 287 287 287 287 287 288 289 290 290 292
278 277 277 278 282 285 287 287 292 295 298 299 298 296 295 293 290 288 286 285 283 282 283 282 282 283 283 284 283 283 283 284 285 285 286 287 288 288 286 285 287 286 286 288 289 288 288 288 290
278 277 273 271 272 278 282 287 291 295 296 297 297 295 294 294 293 291 289 287 285 285 283 284 284 283 282 282 282 282 282 282 284 285 285 287 287 287 285 283 285 285 286 286 286 288 288 288 288
277 275 274 272 274 279 284 286 288 291 294 295 294 294 294 293 295 295 293 289 287 286 284 285 284 283 282 282 283 284 283 282 282 283 284 286 286 286 284 282 283 285 286 285 285 287 287 288 288
280 276 274 273 275 279 285 287 289 293 295 296 295 293 292 293 294 294 293 292 291 288 286 285 286 285 284 283 283 283 284 284 283 281 281 282 283 284 284 283 282 284 285 285 284 286 286 286 286
281 275 275 274 274 279 281 281 286 289 291 292 293 292 292 292 293 293 294 294 293 291 288 286 286 286 284 284 284 283 283 284 284 282 282 282 281 281 282 282 282 282 282 283 283 285 285 285 287
282 278 274 274 276 278 281 281 286 285 286 289 291 291 291 291 292 292 293 292 292 291 290 288 287 286 285 283 283 283 283 284 283 283 283 282 282 281 280 280 280 280 281 282 283 284 285 286 286
Height
5865 5865 5866 5867 5869 5869 5868 5869 5869 5869 5870 5870 5870 5871 5871 5872 5873 5875 5873 5872 5872 5872 5872 5872 5872 5872 5871 5871 5870 5870 5869 5868 5868 5867 5866 5865 5865 5864 5864 5863 5863 5862 5861 5861 5861 5860 5860 5859 5859
5865 5866 5867 5868 5868 5868 5869 5869 5869 5869 5870 5870 5870 5871 5871 5871 5871 5872 5871 5872 5872 5872 5872 5872 5871 5871 5870 5870 5869 5869 5868 5868 5867 5866 5866 5865 5864 5864 5863 5862 5861 5861 5860 5860 5859 5859 5859 5858 5858
5865 5866 5867 5867 5867 5868 5868 5868 5869 5869 5869 5869 5870 5870 5871 5871 5871 5871 5871 5871 5871 5871 5871 5871 5871 5870 5870 5869 5869 5868 5867 5867 5866 5866 5865 5864 5863 5863 5862 5861 5860 5860 5859 5859 5858 5858 5857 5857 5856
5865 5866 5867 5867 5867 5867 5868 5868 5868 5869 5869 5869 5870 5870 5869 5870 5870 5870 5870 5870 5870 5870 5870 5870 5869 5869 5869 5868 5868 5867 5867 5866 5866 5865 5864 5863 5862 5861 5860 5860 5859 5859 5858 5858 5857 5857 5856 5856 5855
5865 5866 5866 5866 5866 5867 5867 5867 5868 5868 5868 5868 5869 5869 5869 5869 5869 5870 5870 5869 5869 5869 5869 5869 5868 5868 5868 5867 5867 5866 5866 5865 5865 5864 5863 5863 5862 5860 5859 5859 5858 5858 5857 5857 5856 5856 5855 5854 5854
5865 5865 5866 5866 5866 5867 5867 5867 5867 5867 5867 5867 5868 5868 5868 5869 5869 5869 5869 5868 5868 5868 5868 5867 5867 5867 5866 5866 5866 5865 5865 5864 5863 5863 5862 5861 5861 5859 5858 5857 5857 5857 5856 5855 5855 5854 5853 5853 5852
5865 5865 5865 5866 5866 5866 5866 5866 5867 5867 5867 5867 5867 5868 5867 5867 5868 5868 5867 5867 5867 5867 5867 5866 5866 5866 5865 5865 5865 5864 5864 5863 5862 5862 5861 5860 5859 5859 5858 5857 5856 5855 5855 5854 5853 5852 5852 5851 5850
5864 5866 5864 5865 5865 5866 5866 5866 5866 5866 5866 5866 5867 5867 5867 5867 5866 5866 5866 5866 5866 5866 5866 5865 5865 5864 5864 5864 5863 5863 5863 5862 5861 5860 5860 5859 5858 5857 5857 5856 5855 5854 5853 5852 5851 5851 5850 5849 5849
5864 5866 5865 5865 5865 5865 5865 5865 5865 5865 5865 5865 5865 5865 5865 5865 5865 5865 5865 5865 5865 5864 5864 5864 5864 5863 5863 5863 5862 5862 5861 5861 5860 5859 5858 5858 5857 5856 5855 5854 5853 5852 5851 5851 5850 5849 5848 5848 5847
5864 5864 5864 5865 5865 5865 5865 5864 5865 5864 5864 5864 5864 5864 5864 5864 5864 5864 5864 5864 5863 5863 5863 5863 5863 5862 5862 5861 5861 5861 5860 5860 5859 5858 5857 5856 5855 5854 5853 5853 5852 5851 5850 5849 5848 5848 5847 5846 5846
5863 5863 5863 5864 5864 5864 5864 5864 5864 5864 5864 5864 5863 5863 5863 5863 5863 5863 5862 5862 5862 5862 5862 5861 5861 5861 5860 5860 5860 5859 5859 5858 5858 5857 5856 5855 5854 5853 5852 5851 5850 5849 5848 5847 5847 5846 5846 5845 5844
5863 5862 5862 5863 5863 5863 5863 5863 5863 5862 5863 5862 5862 5862 5862 5861 5861 5861 5861 5861 5861 5860 5860 5860 5860 5859 5859 5859 5858 5858 5858 5857 5856 5855 5854 5853 5852 5852 5851 5850 5849 5848 5847 5846 5846 5845 5844 5843 5842
5862 5862 5862 5862 5862 5862 5861 5862 5862 5861 5861 5861 5860 5860 5860 5860 5860 5860 5859 5859 5859 5859 5858 5858 5858 5858 5857 5857 5857 5856 5856 5855 5855 5854 5853 5852 5851 5850 5849 5848 5847 5846 5845 5844 5844 5843 5842 5841 5841
5860 5861 5861 5861 5861 5861 5860 5860 5860 5860 5859 5859 5859 5859 5859 5858 5858 5858 5857 5857 5857 5857 5857 5857 5856 5856 5856 5855 5855 5854 5854 5853 5853 5852 5851 5850 5849 5848 5847 5846 5845 5844 5843 5843 5842 5841 5841 5840 5839
5859 5859 5859 5859 5859 5859 5859 5859 5858 5858 5857 5857 5857 5857 5856 5856 5856 5856 5855 5855 5855 5855 5855 5855 5855 5854 5854 5854 5853 5852 5852 5851 5851 5850 5849 5848 5847 5846 5845 5844 5843 5842 5841 5841 5840 5839 5839 5838 5837
5857 5858 5858 5858 5857 5857 5859 5857 5857 5856 5856 5855 5855 5855 5854 5853 5853 5853 5853 5853 5853 5853 5853 5853 5853 5852 5852 5851 5851 5850 5850 5849 5848 5848 5847 5846 5845 5844 5843 5842 5841 5840 5839 5839 5838 5837 5837 5836 5835
5855 5856 5856 5856 5856 5855 5856 5855 5855 5854 5854 5853 5853 5853 5852 5852 5851 5851 5851 5850 5850 5850 5850 5850 5850 5850 5849 5849 5848 5848 5847 5847 5846 5845 5845 5844 5843 5842 5841 5840 5839 5838 5837 5837 5836 5835 5834 5834 5833
5854 5854 5854 5854 5854 5853 5853 5853 5852 5852 5852 5851 5851 5850 5850 5849 5849 5849 5848 5848 5848 5848 5848 5847 5847 5847 5847 5846 5846 5845 5845 5844 5844 5843 5842 5841 5840 5839 5838 5838 5837 5836 5835 5835 5834 5833 5832 5831 5830
5852 5852 5852 5852 5851 5851 5851 5851 5850 5850 5850 5849 5849 5848 5847 5847 5846 5846 5846 5845 5845 5845 5845 5844 5844 5844 5844 5843 5843 5842 5842 5841 5841 5839 5839 5838 5837 5837 5836 5835 5834 5834 5833 5832 5831 5830 5829 5828 5827
5850 5850 5850 5850 5849 5849 5849 5849 5848 5847 5847 5847 5846 5845 5844 5844 5844 5843 5843 5842 5842 5842 5842 5841 5841 5841 5840 5840 5839 5839 5838 5838 5837 5836 5835 5835 5834 5833 5833 5832 5831 5831 5830 5829 5828 5827 5826 5825 5824
5848 5847 5847 5848 5847 5846 5846 5846 5845 5845 5845 5844 5843 5842 5842 5841 5841 5840 5840 5839 5839 5838 5838 5838 5837 5837 5837 5836 5835 5834 5834 5834 5833 5832 5832 5831 5830 5830 5829 5828 5828 5827 5827 5826 5825 5824 5823 5822 5821
5845 5845 5845 5845 5845 5844 5844 5843 5843 5842 5842 5841 5840 5840 5839 5838 5837 5837 5836 5836 5835 5835 5834 5834 5833 5833 5832 5832 5831 5830 5830 5830 5829 5828 5828 5827 5826 5826 5825 5825 5824 5824 5823 5822 5821 5821 5820 5819 5818
5842 5842 5842 5842 5842 5842 5841 5841 5841 5839 5838 5838 5838 5836 5836 5835 5834 5833 5832 5832 5831 5830 5830 5829 5829 5828 5828 5827 5827 5826 5825 5825 5825 5824 5823 5823 5822 5821 5821 5820 5820 5819 5819 5818 5817 5816 5815 5814 5814
5840 5840 5840 5839 5839 5839 5839 5839 5838 5836 5836 5835 5834 5833 5832 5831 5830 5829 5828 5827 5827 5826 5825 5825 5824 5824 5823 5822 5822 5821 5821 5820 5820 5819 5819 5818 5817 5817 5816 5816 5815 5815 5814 5813 5813 5812 5811 5810 5809
5837 5837 5837 5837 5836 5837 5836 5835 5836 5834 5833 5832 5831 5830 5828 5827 5826 5824 5823 5822 5822 5820 5820 5820 5820 5819 5818 5817 5817 5816 5816 5815 5815 5814 5814 5813 5812 5812 5811 5811 5810 5809 5809 5808 5807 5807 5806 5805 5804
5834 5834 5835 5835 5835 5834 5833 5832 5832 5831 5830 5828 5827 5825 5824 5823 5821 5820 5819 5818 5817 5815 5814 5814 5814 5813 5813 5812 5811 5811 5810 5809 5809 5808 5808 5807 5807 5806 5805 5805 5804 5804 5803 5802 5802 5801 5800 5799 5798
5831 5831 5831 5831 5830 5830 5830 5829 5827 5826 5826 5824 5823 5821 5820 5818 5817 5815 5814 5813 5812 5810 5809 5809 5808 5807 5807 5806 5806 5805 5804 5803 5803 5802 5802 5801 5800 5800 5799 5799 5798 5797 5797 5796 5795 5794 5794 5793 5792
5828 5827 5827 5827 5826 5826 5826 5825 5824 5822 5821 5819 5817 5816 5815 5814 5812 5811 5809 5808 5806 5805 5804 5803 5801 5801 5800 5800 5799 5799 5798 5797 5796 5795 5795 5794 5794 5793 5793 5792 5792 5791 5790 5789 5788 5788 5787 5786 5785
5824 5824 5823 5823 5823 5822 5821 5823 5819 5818 5816 5814 5812 5811 5810 5809 5807 5805 5804 5802 5801 5800 5798 5797 5796 5794 5793 5793 5792 5791 5790 5789 5789 5788 5788 5787 5786 5786 5785 5785 5784 5784 5783 5782 5781 5780 5779 5779 5778
5819 5819 5819 5819 5818 5817 5816 5818 5814 5812 5810 5808 5807 5805 5804 5803 5801 5800 5798 5797 5795 5794 5792 5791 5789 5788 5787 5786 5785 5784 5783 5782 5781 5780 5780 5779 5779 5778 5777 5777 5776 5776 5775 5774 5773 5772 5772 5771 5770